Savannah, GA

8:15 PM EST on February 27, 2017 (GMT -0500)
Savannah International

Weather History for KSAV - February, 2013

Change the Weather History Date:

Wednesday, February 6, 2013

  Actual Average Record
Temperature  
Mean Temperature 62 °F 51 °F  
Max Temperature 74 °F 63 °F 82 °F (2008)
Min Temperature 49 °F 40 °F 19 °F (1966)
Degree Days  
Heating Degree Days 3 14  
Month to date heating degree days 83 84  
Since 1 July heating degree days 976 1258  
Cooling Degree Days 0 0  
Month to date cooling degree days 0 0  
Year to date cooling degree days 26 3  
Growing Degree Days 10 (Base 50)    
Moisture  
Dew Point 50 °F    
Average Humidity 67    
Maximum Humidity 93    
Minimum Humidity 41    
Precipitation  
Precipitation 0.00 in 0.10 in 2.29 in (1986)
Month to date precipitation 0.00 0.64  
Year to date precipitation 0.55 4.33  
Snow  
Snow 0.00 in 0.00 in - ()
Month to date snowfall 0.0  
Since 1 July snowfall 0.0 0.2  
Snow Depth 0.00 in    
Sea Level Pressure  
Sea Level Pressure 30.12 in    
Wind  
Wind Speed 3 mph (SSW)    
Max Wind Speed 12 mph    
Max Gust Speed 14 mph    
Visibility 10 miles    
Events      
T = Trace of Precipitation, MM = Missing Value Source: NWS Daily Summary

Daily Weather History Graph

Daily Weather History Graph

Search for Another Location

Airport or City:

Trip Planner

Search our weather history database for the weather conditions in past years. The results will help you decide how hot, cold, wet, or windy it might be!

Date:

Astronomy

Feb. 06, 2013 Rise Set
Actual Time 7:14 AM EST 6:03 PM EST
Civil Twilight 6:49 AM EST 6:28 PM EST
Nautical Twilight 6:20 AM EST 6:57 PM EST
Astronomical Twilight 5:51 AM EST 7:26 PM EST
Moon 3:50 AM EST (2/6) 2:26 PM EST (2/6)
Length of Visible Light 11h 39m
Length of Day
10h 48m
Waning Crescent, 17% of the Moon is Illuminated
Feb 6
Waning Crescent
Feb 10
New
Feb 17
First Quarter
Feb 25
Full
Mar 4
Last Quarter

Hourly Weather History & Observations

Time (EST) Temp. Dew Point Humidity Pressure Visibility Wind Dir Wind Speed Gust Speed Precip Events Conditions
12:53 AM 57.0 °F 46.9 °F 69% 30.05 in 10.0 mi SSW 4.6 mph - N/A   Overcast
1:53 AM 55.0 °F 46.9 °F 74% 30.06 in 10.0 mi Calm Calm - N/A   Overcast
2:53 AM 55.0 °F 46.9 °F 74% 30.05 in 10.0 mi Calm Calm - N/A   Overcast
3:53 AM 55.0 °F 48.0 °F 77% 30.06 in 10.0 mi Calm Calm - N/A   Overcast
4:53 AM 52.0 °F 46.9 °F 83% 30.08 in 10.0 mi North 3.5 mph - N/A   Mostly Cloudy
5:53 AM 51.1 °F 46.9 °F 86% 30.09 in 10.0 mi Calm Calm - N/A   Scattered Clouds
6:53 AM 51.1 °F 46.9 °F 86% 30.12 in 10.0 mi WSW 3.5 mph - N/A   Scattered Clouds
7:53 AM 51.1 °F 48.0 °F 89% 30.14 in 8.0 mi Calm Calm - N/A   Scattered Clouds
8:53 AM 59.0 °F 52.0 °F 78% 30.15 in 10.0 mi West 5.8 mph - N/A   Partly Cloudy
9:53 AM 64.0 °F 53.1 °F 67% 30.17 in 10.0 mi NW 6.9 mph - N/A   Scattered Clouds
10:53 AM 63.0 °F 52.0 °F 67% 30.18 in 10.0 mi WNW 4.6 mph - N/A   Mostly Cloudy
11:53 AM 68.0 °F 51.1 °F 55% 30.17 in 10.0 mi Calm Calm - N/A   Scattered Clouds
12:53 PM 71.1 °F 50.0 °F 47% 30.13 in 10.0 mi Calm Calm - N/A   Scattered Clouds
1:53 PM 70.0 °F 48.9 °F 47% 30.11 in 10.0 mi Calm Calm - N/A   Scattered Clouds
2:53 PM 73.0 °F 48.9 °F 42% 30.11 in 10.0 mi South 3.5 mph - N/A   Scattered Clouds
3:53 PM 71.1 °F 48.9 °F 45% 30.10 in 10.0 mi Calm Calm - N/A   Scattered Clouds
4:53 PM 71.1 °F 52.0 °F 51% 30.10 in 10.0 mi South 10.4 mph - N/A   Scattered Clouds
5:53 PM 66.0 °F 53.1 °F 63% 30.11 in 10.0 mi SSE 8.1 mph - N/A   Scattered Clouds
6:53 PM 61.0 °F 52.0 °F 72% 30.13 in 10.0 mi SSE 6.9 mph - N/A   Scattered Clouds
7:53 PM 59.0 °F 52.0 °F 78% 30.15 in 10.0 mi SSE 4.6 mph - N/A   Scattered Clouds
8:53 PM 57.0 °F 52.0 °F 83% 30.12 in 10.0 mi East 5.8 mph - N/A   Scattered Clouds
9:53 PM 54.0 °F 51.1 °F 90% 30.16 in 10.0 mi Calm Calm - N/A   Scattered Clouds
10:53 PM 52.0 °F 48.9 °F 89% 30.16 in 10.0 mi Calm Calm - N/A   Clear
11:53 PM 51.1 °F 50.0 °F 96% 30.16 in 7.0 mi Calm Calm - N/A   Scattered Clouds